Location: *
(34.0486°S, 61.7880°E)
Time: 00:39:45
(UTC+00:00)

Daily predictions for brighter satellites

Satellite Brightness Start Highest point End
(mag) Time Altitude Azimuth Time Altitude Azimuth Time Altitude Azimuth
METEOR-M 4.2 00:01:51 10° N 00:07:07 59° W 00:12:28 10° SSW
FALCON 9 DEB 4.3 00:06:37 10° SSW 00:09:44 43° SE 00:12:49 10° ENE
Cosmos 1707 3.4 00:11:14 10° N 00:15:05 59° E 00:19:00 10° SSE
USA 238 DEB 4.1 00:11:36 10° SSW 00:18:24 67° ESE 00:24:52 10° NE
USA 238 4.1 00:11:43 10° SSW 00:18:31 66° ESE 00:24:59 10° NE
Cosmos 1763 Rocket 3.5 00:15:53 10° SSW 00:20:55 60° WNW 00:25:54 10° N
CENTAUR R/B 3.3 00:16:18 10° SSW 00:21:39 46° SE 00:26:34 10° NE
Cosmos 841 Rocket 4.1 00:17:40 10° S 00:22:54 64° ESE 00:28:02 10° NNE
Meteor 1-21 4.2 00:17:37 10° NNW 00:23:14 76° W 00:28:59 10° S
CZ-4B R/B 4.2 00:20:08 10° N 00:24:18 50° W 00:28:20 10° SSW
SL-16 R/B 4.4 00:20:29 10° S 00:25:32 31° ESE 00:30:32 10° NE
ALOS 3.3 00:22:26 10° NNW 00:26:22 26° W 00:30:20 10° SW
deb Chang Zheng 4 3.5 00:24:55 10° N 00:29:08 68° WNW 00:33:25 10° SSW
CZ-4B R/B 3.0 00:25:28 10° NNE 00:29:26 86° ESE 00:33:42 10° S
Cosmos 1470 2.9 00:26:20 10° S 00:30:22 83° E 00:34:20 10° N
Cosmos 921 Rocket 3.1 00:27:19 10° SSW 00:31:50 62° WNW 00:36:15 10° N
Cosmos 1975 Rocket 3.1 00:29:14 10° N 00:33:38 77° W 00:38:09 10° S
Cosmos 2333 Rocket 3.7 00:30:28 10° WSW 00:33:53 16° W 00:37:17 10° NW
ATLAS CENTAUR R/B 1.7 00:31:09 10° SSW 00:35:43 78° ESE 00:39:56 10° NNE
CZ-4C R/B 3.2 00:32:10 10° NNW 00:40:40 81° WSW 00:48:08 10° SSE
